Location: *
(44.3925°N, 5.4708°E)
Time: 14:59:41
(UTC+00:00)

Cosmos 1707 - Pass Details

Date: 18 September 2019
Orbit: 517 x 530 km, 82.5° (Epoch: 16 October)

Event Time Altitude Azimuth Distance (km) Brightness Sun altitude
Rises 18:27:17 0° 1° (N) 2,680 6.5 -8.5°
Reaches altitude 10° 18:29:38 10° 13° (NNE) 1,786 5.4 -8.9°
Maximum altitude 18:33:06 29° 75° (ENE) 984 3.6 -9.5°
Drops below altitude 10° 18:36:33 10° 137° (SE) 1,775 4.9 -10.2°
Enters shadow 18:36:48 - 139° (SE) 1,864 5.0 -10.2°
